www.pogodaiklimat.ru

Погода и климат >> Архив погоды >> Индонезия >> Маджене


ПОГОДА в Маджене

  • Прогноз погоды в Маджене
  • Монитор погоды в Маджене

АРХИВ ПОГОДЫ в Маджене

Время (UTC), дата Ветер
(напр.,м/с)
 
Видим.   Явления Облачность Т
(С)
Тd
(С)
f
(%)
Тe
(С)
Тes
(С)
Комфортность P
(гПа)
Po
(гПа)
Тmin
(С)
Tmax
(С)
R
(мм)
R24
(мм)
S
(см)
09 12.08 Ю 1 12 км 8/3 540 м
[Cu med, cong Ac trans Ci fib]
+29.0 +23.8 74 +40 +41 очень
душно
1010.1 1008.8
12 12.08 В 2 10 км 9/3 540 м
[Cu med, cong Ac trans Ci fib]
+28.4 +23.7 76 +39 +39 очень
душно
1011.8 1008.2 +32.0
15 12.08 В 4 10 км 9/3 540 м
[Cu med, cong Ac trans Ci fib]
+26.9 +22.9 79 +36 +36 очень
душно
1012.0 1008.5
18 12.08 В 5 10 км 9/3 540 м
[Cu med, cong Ac trans Ci fib]
+26.3 +22.7 81 +35 +35 очень
душно
1011.3 1007.8
21 12.08 В 4 10 км 8/3 540 м
[Cu med, cong Ac trans Ci fib]
+25.9 +23.0 84 +35 +35 очень
душно
1010.9 1007.4
00 13.08 В 4 12 км 4/1 540 м
[Cu hum Ac trans Cc]
+27.5 +23.1 77 +37 +39 очень
душно
1012.3 1008.8 +25.3
03 13.08 В 4 12 км 1/1 540 м
[Cu hum Ci fib]
+30.0 +23.0 66 +40 +51 опасность
солнечного
удара
1012.3 1008.8
06 13.08 Ю 3 12 км 5/5 540 м
[Cu med, cong Ci fib]
+30.5 +23.2 65 +41 +48 опасность
перегрева
1010.6 1007.1
09 13.08 штиль 0 11 км 8/5 540 м
[Cu Sc Ac trans Ci fib]
+30.0 +23.0 66 +40 +41 очень
душно
1010.5 1007.0
12 13.08 штиль 0 9000 м 8/4 540 м
[Cu med, cong Ac trans Ci fib]
+28.2 +24.7 81 +40 +40 очень
душно
1013.1 1009.6 +31.8
15 13.08 СВ 3 9000 м 8/3 540 м
[Cu med, cong Ac trans Ci fib]
+26.6 +22.1 76 +34 +34 очень
душно
1013.6 1010.1
18 13.08 В 4 9000 м 8/3 540 м
[Cu med, cong Ac trans Ci fib]
+26.4 +21.6 75 +34 +34 очень
душно
1012.5 1009.0
21 13.08 В 4 9000 м 5/3 540 м
[Cu med, cong Ac trans Ci fib]
+25.8 +21.5 77 +33 +33 очень
душно
1012.6 1009.1
00 14.08 В 5 12 км 8/3 540 м
[Cu med, cong Ac trans Ci fib]
+27.2 +21.8 72 +35 +36 очень
душно
1014.1 1010.5 +25.6
03 14.08 В 4 12 км 5/3 540 м
[Cu med, cong Ac trans Ci fib]
+29.6 +22.5 66 +39 +46 очень
душно
1013.5 1010.0
06 14.08 В 4 12 км 4/3 540 м
[Cu med, cong Ac trans Ci fib]
+31.0 +22.8 62 +41 +48 опасность
перегрева
1010.6 1007.1
09 14.08 В 6 12 км 4/3 540 м
[Cu med, cong Ac trans Ci fib]
+30.5 +21.4 58 +38 +39 очень
душно
1010.2 1006.7
12 14.08 штиль 0 10 км 4/1 540 м
[Cu med, cong Ac trans Ci fib]
+27.3 +23.8 81 +37 +37 очень
душно
1012.5 1009.0 +31.4
15 14.08 В 4 10 км 5/1 540 м
[Cu med, cong Ac trans Ci fib]
+26.4 +21.6 75 +34 +34 очень
душно
1013.6 1010.0
18 14.08 В 5 10 км 8/1 540 м
[Cu med, cong Ac trans Ci fib]
+25.8 +20.9 74 +32 +32 очень
душно
1012.8 1009.2
21 14.08 В 2 10 км 8/1 540 м
[Cu med, cong Ac trans Ci fib]
+25.6 +21.0 76 +32 +32 очень
душно
1013.2 1009.6
00 15.08 В 3 12 км 4/3 540 м
[Cu med, cong Ac trans Ci fib]
+27.2 +19.1 61 +32 +35 очень
душно
1014.5 1011.0 +24.4
03 15.08 В 5 12 км 4/3 540 м
[Cu med, cong Ac trans Ci fib]
+29.6 +20.2 57 +36 +43 очень
душно
1013.7 1010.2
06 15.08 ЮВ 4 12 км 4/1 540 м
[Cu med, cong Ac trans Ci fib]
+31.0 +20.9 55 +38 +47 очень
душно
1011.1 1007.6
09 15.08 ЮВ 3 12 км 3/1 540 м
[Cu hum Ac trans Ci fib]
+30.2 +20.9 58 +38 +39 очень
душно
1010.7 1007.2
12 15.08 штиль 0 10 км 1/0
[Ac trans Ci fib]
+26.9 +21.0 70 +34 +34 очень
душно
1012.3 1008.8 +31.5
15 15.08 В 3 10 км 3/1 540 м
[Cu med, cong Ac trans Ci fib]
+26.0 +21.4 76 +33 +33 очень
душно
1013.4 1009.9
18 15.08 В 4 9000 м 3/1 540 м
[Cu med, cong Ac trans Ci fib]
+25.4 +21.4 79 +32 +32 очень
душно
1012.6 1009.1
21 15.08 В 4 9000 м 3/1 540 м
[Cu med, cong Ci fib]
+25.2 +22.5 85 +33 +33 очень
душно
1012.0 1008.5
00 16.08 СВ 3 12 км 3/1 540 м
[Cu med, cong Ac trans Ci fib]
+26.8 +22.3 76 +35 +38 очень
душно
1013.5 1009.9 +23.6
03 16.08 В 3 12 км 3/1 540 м
[Cu med, cong Ac trans Ci fib]
+29.2 +22.7 68 +39 +51 опасность
солнечного
удара
1013.3 1009.8
06 16.08 Ю 2 12 км 3/1 540 м
[Cu med, cong Ac trans Ci fib]
+30.8 +23.6 66 +42 +54 опасность
перегрева
1010.9 1007.4
09 16.08 ЮЗ 1 12 км 5/1 540 м
[Cu med, cong Ac trans Ci fib]
+30.4 +24.4 70 +42 +44 опасность
перегрева
1010.2 1006.7
12 16.08 штиль 0 10 км 6/3 540 м
[Cu med, cong Ac trans Ci fib]
+27.4 +24.0 82 +38 +38 очень
душно
1012.1 1008.6 +32.2
15 16.08 штиль 0 10 км 4/3 540 м
[Cu med, cong Ac trans Ci fib]
+26.7 +23.9 85 +37 +37 очень
душно
1013.3 1009.8
18 16.08 В 3 10 км 1/1 540 м
[Cu hum Ci fib]
+25.7 +22.1 81 +33 +33 очень
душно
1012.8 1009.2
21 16.08 В 4 10 км 1/1 540 м
[Cu hum Ci fib]
+25.5 +22.5 83 +33 +33 очень
душно
1012.7 1009.2
00 17.08 В 4 12 км 5/3 540 м
[Cu med, cong Ac trans Ci fib]
+27.2 +22.4 75 +36 +38 очень
душно
1014.5 1011.0 +24.4
03 17.08 В 5 12 км 4/3 540 м
[Cu med, cong Ac trans Ci fib]
+29.6 +22.5 66 +39 +46 очень
душно
1014.3 1010.7
06 17.08 В 4 12 км 4/3 540 м
[Cu med, cong Ac trans Ci fib]
+30.6 +22.7 63 +40 +48 очень
душно
1012.2 1008.7
09 17.08 В 3 12 км 8/1 540 м
[Cu med, cong Ac trans Ci fib]
+29.8 +22.4 65 +39 +40 очень
душно
1011.0 1007.5
12 17.08 В 2 10 км 8/3 540 м
[Cu med, cong Ac trans Ci fib]
+27.4 +23.3 78 +37 +37 очень
душно
1012.9 1009.4 +31.2
15 17.08 В 3 9000 м 8/3 540 м
[Cu med, cong Ac trans Ci fib]
+26.8 +21.0 71 +34 +34 очень
душно
1014.1 1010.6
18 17.08 В 4 9000 м 5/3 540 м
[Cu med, cong Ac trans Ci fib]
+26.2 +21.7 76 +34 +34 очень
душно
1012.6 1009.1
21 17.08 В 3 9000 м 5/3 540 м
[Cu med, cong Ac trans Ci fib]
+24.6 +20.9 80 +31 +31 очень
душно
1012.7 1009.1
00 18.08 В 5 11 км осадки на расстоянии 9/4 540 м
[Cu Sc Ac trans Ci fib]
+26.4 +22.5 79 +35 +36 очень
душно
1014.5 1011.0 +24.4
03 18.08 В 6 11 км в посл. час дождь 9/4 540 м
[Cu Sc Ac trans Ci fib]
+27.2 +22.1 74 +35 +38 очень
душно
1014.4 1010.6 0.0
06 18.08 В 3 12 км {дождь} 6/3 540 м
[Cu med, cong Ac trans Ci fib]
+30.2 +21.9 61 +39 +46 очень
душно
1011.0 1007.5 0.0
09 18.08 ЮЗ 1 12 км 8/3 540 м
[Cu med, cong Ac trans Ci fib]
+31.2 +23.4 63 +42 +43 опасность
перегрева
1009.9 1008.4
12 18.08 штиль 0 10 км 9/4 540 м
[Cu med, cong Ac trans Ci fib]
+27.4 +23.9 81 +38 +38 очень
душно
1012.7 1008.2 +30.8
15 18.08 Ю 1 10 км 9/3 540 м
[Cu med, cong Ac trans Ci fib]
+26.9 +23.6 82 +37 +37 очень
душно
1013.7 1009.9
18 18.08 СВ 2 10 км 8/3 540 м
[Cu med, cong Ac trans Ci fib]
+24.5 +22.5 89 +32 +32 очень
душно
1012.8 1009.3
21 18.08 СВ 2 10 км 8/3 540 м
[Cu med, cong Ac trans Ci fib]
+24.9 +21.7 82 +32 +32 очень
душно
1012.5 1009.0
00 19.08 В 4 8000 м слаб. дождь 9/5 540 м
[Cu Sc Ac As]
+24.0 +23.0 94 +32 +33 очень
душно
1014.6 1011.1 +23.4 2 2
03 19.08 В 2 11 км слаб. дождь 10/5 540 м
[Cu Sc Ac As]
+24.8 +22.9 89 +33 +36 очень
душно
1014.2 1010.6 3
06 19.08 штиль 0 12 км {дождь} 9/3 540 м
[Cu med, cong Ac trans Ci fib]
+28.0 +23.0 74 +37 +46 очень
душно
1010.9 1007.4 0.0

 

Местоположение метеостанции Маджене (Индонезия): широта -2.50 долгота 119.00 высота над уровнем моря 8 м.

В архиве по умолчанию представлена погода в Маджене за последнюю неделю. Архивные данные за месяц целиком и за предыдущие месяцы, начиная с января 2011 года, Вы можете получить, выбрав интересующий диапазон дат из раскрывающегося списка и нажав кнопку "Ввод!".


*Определитесь, кто Вы:
робот инопланетянин человек

Внимание! Время в таблицах - всемирное. Для получения местного времени необходимо прибавить поправку, которая равна 8 ч.

Смотрите также архив погоды в соседних городах и на ближайших метеорологических станциях:

Погода в Масамбе (Индонезия) (151 км)
Погода в Палу (Индонезия) (218 км)
Погода в Посо (Индонезия) (229 км)
Погода в Баликпапане (Индонезия) (271 км)
Погода в Аэропорту Султана Хасануддин (Индонезия) (292 км)
Погода в Уджангпанданге (Индонезия) (292 км)
Погода в Самаринде (Индонезия) (293 км)
Погода в Котабару (Индонезия) (326 км)
Погода в Колаке (Индонезия) (345 км)
Погода в Кендари (Индонезия) (420 км)

Пояснения к столбцам:

Ветер - указаны скорость ветра в м/с - средняя за 10 мин, порывы в срок и между сроками (в фигурных скобках) и направление, откуда дует ветер: С - северный, СВ - северо-восточный, В - восточный, ЮВ - юго-восточный, Ю - южный, ЮЗ - юго-западный, З - западный, СЗ - северо-западный.
Видимость - горизонтальная дальность видимости в метрах или километрах. При видимости от 1 до 10 км при отсутствии осадков обычно наблюдается дымка, при ухудшении видимости до 1 км и менее - туман. В сухую погоду видимость может ухудшаться дымом, пылью или мглою.
Явления - указаны атмосферные явления, наблюдавшиеся в срок или в последний час перед сроком; фигурными скобками обозначены явления, наблюдавшиеся между сроками (за 1-3 часа до срока); квадратными скобками обозначены град или гололедные отложения с указанием их диаметра в мм.
Облачность - указаны через наклонную черту общая и нижняя облачность в баллах и высота нижней границы облаков в метрах; квадратными скобками обозначены формы облаков: Ci - перистые, Cs - перисто-слоистые, Cc - перисто-кучевые, Ac - высококучевые, As - высокослоистые, Sc - слоисто-кучевые, Ns - слоисто-дождевые, Cu - кучевые, Cb - кучево-дождевые. Подробнее классификацию облаков см. в Атласе облаков (PDF).
T - Температура воздуха - температура, измеренная на высоте 2 м над землей.
Td - Температура точки росы - температура, при понижении до которой содержащийся в воздухе водяной пар достигнет насыщения.
f - Относительная влажность воздуха - влажноcть воздуха, измеренная на высоте 2 м над землей.
Te - Эффективная температура - температура, которую ощущает одетый по сезону человек в тени. Характеристика душности погоды. При расчете учитывается влияние влажности воздуха и скорости ветра на теплоощущения человека.
Tes - Эффективная температура на солнце - температура, которую ощущает человек, с поправкой на солнечный нагрев. Характеристика знойности погоды. Зависит от высоты солнца над горизонтом, облачности и скорости ветра. Ночью, в пасмурную погоду, а также при ветре 12 м/с и более поправка равна нулю.
P - Атмосферное давление - приведенное к уровню моря атмосферное давление.
Po - Атмосферное давление - измеренное на уровне метеостанции атмосферное давление.
Tmin - Минимальная температура - минимум температуры воздуха на высоте 2 м над землей.
Tmax - Максимальная температура - максимум температуры воздуха на высоте 2 м над землей.
R - Количество осадков - Количество выпавших осадков за период времени, мм. При наведении курсора мыши на число - период времени, за который выпало указанное количество осадков.
R24 - Количество осадков - Количество выпавших осадков за 24 часа, мм.
S - Снежный покров - Высота снежного покрова, см. При наведении курсора мыши на число - состояние снежного покрова и степень покрытия местности в баллах.